Location: Colonia Mina de C?rbuni
(46.1667°N, 22.7167°E)
Time: 22:36:33
(UTC+00:00)

Tiros 1 - Pass Details

Date: 22 April 2024
Orbit: 624 x 657 km, 48.4° (Epoch: 20 May)

Event Time Altitude Azimuth Distance (km) Brightness Sun altitude
Rises 04:21:04 0° 285° (WNW) 2,908 9.9 7.8°
Reaches altitude 10° 04:23:51 10° 269° (W) 1,995 9.1 8.2°
Maximum altitude 04:27:15 21° 221° (SW) 1,416 8.5 8.8°
Drops below altitude 10° 04:30:38 10° 173° (S) 1,986 9.7 9.4°
Sets 04:33:23 0° 157° (SSE) 2,890 10.7 9.9°
